Regional Weather Roundup
Issued by NWS Northern Indiana

Home | Current Version | Previous Version | Graphics & Text | Print | Product List | Glossary On
Versions: 1 2 3 4 5 6 7 8 9 10 11 12 13 14 15 16 17 18 19 20 21 22 23 24 25 26 27 28 29 30 31 32 33 34 35 36 37 38 39 40 41 42 43 44 45 46 47 48 49 50
000
ASUS43 KIWX 010610
RWRIWX

KIWX WEATHER ROUNDUP
NATIONAL WEATHER SERVICE NORTHERN INDIANA
100 AM EST SUN FEB 01 2015

NOTE: "FAIR" INDICATES FEW OR NO CLOUDS BELOW 12,000 FEET WITH NO
SIGNIFICANT WEATHER AND/OR OBSTRUCTIONS TO VISIBILITY.

* THESE STATIONS ARE NOT UNDER NWS QUALITY CONTROL. THEY ALSO MAY NOT
  REPORT WEATHER SUCH AS PRECIPITATION OR FOG.

INZ001>027-010700-
NORTHERN INDIANA

CITY           SKY/WX    TMP DP  RH WIND       PRES   REMARKS
GARY*          LGT SNOW  34  31  90 CALM      30.15F
VALPARAISO     LGT SNOW  32  31  96 SW5       30.15F FOG     WCI  27
6HR MIN TEMP:  32; 6HR MAX TEMP:  35; 6HR PCP:  0.07;

MICHIGAN CITY* LGT SNOW  32  30  93 NE3       30.16F
LAPORTE*       LGT SNOW  34  34 100 CALM      30.15F
6HR MIN TEMP:  34; 6HR MAX TEMP:  36; 6HR PCP:  0.06;

KNOX*          CLOUDY    32  28  86 S3        30.15F VSB 3/4
SOUTH BEND     LGT SNOW  32  30  92 NE6       30.16F FOG     WCI  26
6HR MIN TEMP:  32; 6HR MAX TEMP:  35; 6HR PCP:  0.09;

GOSHEN         LGT SNOW  33  31  92 SW6       30.15F FOG     WCI  28
6HR MIN TEMP:  33; 6HR MAX TEMP:  34; 6HR PCP:  0.07;

MONTICELLO*    LGT SNOW  32  32  99 S3        30.16F
6HR MIN TEMP:  32; 6HR MAX TEMP:  35; 6HR PCP:  0.03;

LOGANSPORT*    LGT SNOW  32  32 100 S5        30.17F WCI  27
ROCHESTER*     LGT SNOW  34  34 100 SW5       30.16F WCI  30
WARSAW*        LGT SNOW  32  32 100 CALM      30.16S
ANGOLA*        CLOUDY    30  30 100 CALM      30.15S
FORT WAYNE     LGT SNOW  33  31  92 SW7       30.18S FOG     WCI  27
6HR MIN TEMP:  32; 6HR MAX TEMP:  35; 6HR PCP:  0.06;

HUNTINGTON*    LGT SNOW  32  29  89 SW6       30.17F WCI  26
6HR MIN TEMP:  32; 6HR MAX TEMP:  35; 6HR PCP:  0.02;

PERU/GRISSOM   LGT SNOW  32  32 100 S6        30.16F FOG     WCI  26
6HR MIN TEMP:  33; 6HR MAX TEMP:  35; 6HR PCP:  0.07;

MARION*        LGT SNOW  32  32  99 SW7       30.19S WCI  26
6HR MIN TEMP:  -2; 6HR MAX TEMP:  46; 6HR PCP:  0.03;


$$
INZ028>050-010700-
CENTRAL INDIANA

CITY           SKY/WX    TMP DP  RH WIND       PRES   REMARKS
LAFAYETTE      LGT SNOW  32  31  96 S3        30.17S FOG
6HR MIN TEMP:  32; 6HR MAX TEMP:  36; 6HR PCP:  0.05;

KOKOMO*        CLOUDY    34  28  80 S8        30.17F WCI  27
6HR MIN TEMP:  34; 6HR MAX TEMP:  36; 6HR PCP:  0.07;

MUNCIE*        LGT SNOW  32  30  92 SW7       30.18F FOG     WCI  26
6HR MIN TEMP:  32; 6HR MAX TEMP:  36; 6HR PCP:  0.04;

INDIANAPOLIS   LGT SNOW  30  30 100 SE5       30.18F FOG     WCI  25
6HR MIN TEMP:  29; 6HR MAX TEMP:  32; 6HR PCP:  0.14;


$$
MIZ043>046-050>051-056>058-064>065-071>073-077>080-010700-
SOUTHWEST LOWER MICHIGAN

CITY           SKY/WX    TMP DP  RH WIND       PRES   REMARKS
BATTLE CREEK   LGT SNOW  31  27  85 CALM      30.17R VSB 3/4
6HR MIN TEMP:  30; 6HR MAX TEMP:  32; 6HR PCP:  0.02;

BENTON HARBOR  LGT SNOW  29  29 100 CALM      30.17S VSB 3/4
6HR MIN TEMP:  29; 6HR MAX TEMP:  32; 6HR PCP:  0.05;

COLDWATER*     LGT SNOW  29  29  97 CALM      30.16S
6HR MIN TEMP:  29; 6HR MAX TEMP:  32;

HILLSDALE*     LGT SNOW  30  29  99 CALM      30.14S
6HR MIN TEMP:  29; 6HR MAX TEMP:  32;

HOLLAND        LGT SNOW  30  24  78 NE5       30.19R WCI  25
6HR MIN TEMP:  30; 6HR MAX TEMP:  32; 6HR PCP: TRACE;

GRAND RAPIDS   CLOUDY    28  23  81 NE13      30.18R WCI  17
6HR MIN TEMP:  28; 6HR MAX TEMP:  31; 6HR PCP: TRACE;

KALAMAZOO      LGT SNOW  30  27  88 CALM      30.17S VSB 3/4
6HR MIN TEMP:  28; 6HR MAX TEMP:  32; 6HR PCP:  0.04;

STURGIS*       LGT SNOW  28  28 100 CALM      30.15F
THREE RIVERS*  LGT SNOW  30  28  94 CALM      30.16F VSB 1
6HR MIN TEMP:  30; 6HR MAX TEMP:  35;


$$
OHZ001>008-015>018-024>025-010700-
NORTHWEST OHIO

CITY           SKY/WX    TMP DP  RH WIND       PRES   REMARKS
DEFIANCE       LGT SNOW  33  31  92 CALM      30.18S VSB 1
6HR MIN TEMP:  32; 6HR MAX TEMP:  35; 6HR PCP: TRACE;

FINDLAY        LGT SNOW  33  29  85 W7        30.17S FOG     WCI  27
6HR MIN TEMP:  30; 6HR MAX TEMP:  34; 6HR PCP: TRACE;

TOLEDO EXPRESS LGT SNOW  30  29  96 SW3       30.17S FOG
6HR MIN TEMP:  28; 6HR MAX TEMP:  32; 6HR PCP:  0.01;

TOLEDO METCALF LGT SNOW  32  28  85 SW6       30.18S FOG     WCI  26
6HR MIN TEMP:  29; 6HR MAX TEMP:  32; 6HR PCP: TRACE;

LIMA           LGT SNOW  34  31  88 SW8       30.17S FOG     WCI  27
6HR MIN TEMP:  34; 6HR MAX TEMP:  35; 6HR PCP:  0.01;


$$
AND FOR LAKE MICHIGAN COASTAL AND OPEN LAKE BUOY OBSERVATIONS

STATION/POSITION TEMP    WIND        PRES    VSBY  WAVE
                 AIR SEA DIR/SP/G                  HT/PER
                 (F)     (DEG/KT/KT) (MB)    (MI)  (FT/S)
CALUMET HARBOR    31      50/  6/  7   N/A
MICHIGAN CITY     30      30/ 12/ 13   N/A
SAINT JOSEPH      30      20/  1/  3 1021.3F

$$
&&



USA.gov is the U.S. government's official web portal to all federal, state and local government web resources and services.